This demonstration page uses our WeatherBlox Daily Observations layout. Learn more.

Left ArrowRight Arrow

Hourly Observations for April 22, 2019

Temp ( °F °C ) Dew Point ( °F °C ) Humidity (%) Winds ( mph kmh ) Pressure ( in mb ) Visibility ( mi km ) Precip ( " mm )
12:53 am 00:53 Clear 70 21.1 55 12.8 59 59 SE 12 19 29.75 1008 10 16 0.00 0.00
1:53 am 01:53 Clear 68 20 57 13.9 68 68 SE 12 19 29.75 1007 10 16 0.00 0.00
2:53 am 02:53 Clear 67 19.4 56 13.3 68 68 SE 12 19 29.73 1007 10 16 0.00 0.00
3:53 am 03:53 Clear 66 18.9 55 12.8 68 68 SE 15 24 29.72 1006 10 16 0.00 0.00
4:53 am 04:53 Clear 66 18.9 55 12.8 68 68 SE 12 19 29.72 1006 10 16 0.00 0.00
5:53 am 05:53 Clear 65 18.3 54 12.2 68 68 SE 7 11 29.74 1007 10 16 0.00 0.00
6:53 am 06:53 Clear 62 16.7 54 12.2 75 75 SE 6 9 29.77 1008 10 16 0.00 0.00
7:53 am 07:53 Sunny 62 16.7 55 12.8 78 78 E 5 7 29.78 1009 10 16 0.00 0.00
8:53 am 08:53 Sunny 63 17.2 57 13.9 81 81 ESE 7 11 29.80 1009 10 16 0.00 0.00
9:53 am 09:53 Sunny 66 18.9 58 14.4 75 75 SE 7 11 29.82 1010 10 16 0.00 0.00
10:53 am 10:53 Sunny 67 19.4 58 14.4 73 73 SE 8 13 29.83 1010 10 16 0.00 0.00
11:53 am 11:53 Sunny 69 20.6 58 14.4 68 68 NNE 3 6 29.86 1011 10 16 0.00 0.00
12:53 pm 12:53 Mostly Sunny 70 21.1 58 14.4 66 66 Calm 29.88 1012 10 16 0.00 0.00
1:53 pm 13:53 Sunny 73 22.8 56 13.3 55 55 NNE 10 17 29.85 1011 10 16 0.00 0.00
2:53 pm 14:53 Sunny 74 23.3 56 13.3 54 54 N 13 20 29.84 1010 10 16 0.00 0.00
3:53 pm 15:53 Mostly Sunny 75 23.9 56 13.3 52 52 VRB 5 7 29.84 1010 10 16 0.00 0.00
4:53 pm 16:53 Partly Cloudy 75 23.9 56 13.3 52 52 ENE 6 9 29.83 1010 10 16 0.00 0.00
5:53 pm 17:53 Sunny 75 23.9 56 13.3 52 52 NE 10 17 29.82 1010 10 16 0.00 0.00
6:53 pm 18:53 Sunny 75 23.9 56 13.3 52 52 ENE 10 17 29.80 1009 10 16 0.00 0.00
7:53 pm 19:53 Sunny 73 22.8 57 13.9 57 57 E 13 20 29.80 1009 10 16 0.00 0.00
8:53 pm 20:53 Partly Cloudy 70 21.1 57 13.9 64 64 E 12 19 29.80 1009 10 16 0.00 0.00
9:53 pm 21:53 Clear 67 19.4 58 14.4 73 73 ESE 9 15 29.84 1011 10 16 0.00 0.00
10:53 pm 22:53 Clear 64 17.8 58 14.4 81 81 E 9 15 29.82 1010 10 16 0.00 0.00
11:53 pm 23:53 Clear 63 17.2 58 14.4 84 84 E 3 6 29.85 1011 10 16 0.00 0.00

Powered by AerisWeather